[[{"header":{"parameterUnit":"m.s-1","parameterCategory":2,"la1":30.2991,"la2":30.254,"lo1":-89.0895,"lo2":-89.0444,"dy":0.0017,"dx":0.0017,"nx":28,"ny":28,"refTime":"2024-12-13T03:00:00:Z","depth":"0","parameterNumber":2,"parameterNumberName":"U-component_of_CURRENTS"},"data":[0,0,0,0,0,0,0,0,0,0,0,0,0,0,0,0,0,0,0,0,0,0,0,0,0,0,0,0,0,0,0,0,0,0,0,0,0,0,0,0,0,0,0,0,0,0,0,0,0,0,0,0,0,0,0,0,0,0,0.2729,0.2729,0,0.2724,0.2724,0.2724,0.2703,0.2703,0.2703,0.2703,0.2682,0.2681,0.2681,0,0,0,0,0,0,0,0,0,0,0,0,0,0.2713,0.2713,0.2729,0.2729,0.273,0.2724,0.2724,0.2724,0.2703,0.2703,0.2703,0.2702,0.2682,0.2681,0.2681,0,0,0,0,0,0,0,0,0,0,0,0,0,0.2713,0.2714,0.2729,0.2721,0.272,0.2724,0.2724,0.2724,0.2703,0.2703,0.2703,0.2702,0.2682,0.2681,0.2681,0.2685,0,0,0.2679,0.2679,0,0,0,0,0,0,0,0,0.2713,0.2713,0.2722,0.2721,0.2721,0.2716,0.2711,0.2711,0.2703,0.2707,0.2703,0.2702,0.2694,0.2692,0.2689,0.2684,0.2683,0.2679,0.2679,0.2679,0.2679,0,0,0,0,0,0,0,0.2713,0.2713,0.2725,0.2722,0.2721,0.2715,0.2714,0.2711,0.27,0.2707,0.2706,0.2709,0.2693,0.2689,0.2688,0.2683,0.2679,0.2679,0.2679,0.2678,0.2723,0.2724,0,0,0,0,0,0,0.272,0.2714,0.2725,0.2725,0.2719,0.2715,0.2714,0.2716,0.2701,0.2699,0.271,0.2709,0.269,0.2689,0.2687,0.2731,0.2679,0.2678,0.2678,0.2721,0.2723,0.2725,0,0,0,0,0,0,0.2719,0.2721,0.2725,0.2721,0.2722,0.2716,0.2718,0.2716,0.2717,0.2704,0.2701,0.2714,0.269,0.2688,0.2697,0.2728,0.2678,0.2678,0.272,0.2722,0.2724,0.2793,0,0,0,0,0,0,0.2719,0.272,0.2723,0.2722,0.2722,0.2737,0.2719,0.2716,0.2721,0.2719,0.2706,0.2703,0.2689,0.2698,0.2697,0.2727,0.2677,0.2718,0.2721,0.2723,0.2789,0.2797,0.2805,0,0,0,0,0,0.2718,0.2728,0.2723,0.2725,0.2726,0.2738,0.2738,0.2731,0.2722,0.2729,0.2722,0.2704,0.2715,0.2699,0.2697,0.2728,0.2716,0.272,0.2723,0.2785,0.2796,0.2804,0,0,0,0,0,0,0.2722,0.2727,0.2722,0.2731,0.2738,0.2736,0.2743,0.2737,0.2737,0.2736,0.2717,0.2715,0.2743,0.2723,0.2705,0.275,0.2715,0.2718,0.2763,0.2773,0.278,0.2797,0.2677,0,0,0,0,0,0.2725,0.2732,0.2737,0.2745,0.275,0.2747,0.275,0.2749,0.275,0.2749,0.2741,0.2739,0.2755,0.2752,0.2761,0.2773,0.2777,0.2794,0.2802,0.2808,0.2822,0.2864,0.2877,0.2736,0.2736,0.2736,0,0,0.2728,0.2733,0.2735,0.2746,0.2748,0.2767,0.2748,0.2761,0.2785,0.2747,0.2772,0.277,0.2768,0.2795,0.2804,0.2778,0.2849,0.2813,0.2818,0.2828,0.2868,0.2882,0.2894,0.2738,0.2737,0.2737,0,0,0.2748,0.2743,0.2761,0.2769,0.2783,0.2785,0.2793,0.2798,0.281,0.2828,0.2824,0.284,0.2839,0.2855,0.286,0.2914,0.2899,0.2914,0.2956,0.2996,0.3008,0.3019,0.3035,0.3047,0.2906,0.2906,0.2906,0,0.2751,0.2775,0.2768,0.2791,0.2799,0.2797,0.282,0.2839,0.2849,0.2868,0.2845,0.2878,0.2874,0.2924,0.2946,0.2935,0.2944,0.2918,0.3007,0.3018,0.3028,0.3042,0.3054,0.291,0.291,0.2909,0.2909,0,0.2784,0.2807,0.282,0.2845,0.285,0.2873,0.2892,0.2913,0.2917,0.2933,0.2979,0.2974,0.2988,0.2997,0.2986,0.3059,0.3039,0.3022,0.2984,0.3046,0.3057,0.3068,0.2915,0.2914,0.2913,0.2912,0,0,0.2784,0.2835,0.2839,0.2855,0.2881,0.2884,0.2936,0.2977,0.3011,0.3028,0.3077,0.3104,0.3096,0.3103,0.3096,0.3128,0.3203,0.3105,0.3105,0.3123,0.3282,0.3206,0.321,0.3202,0.3205,0.3207,0.326,0,0.2816,0.2862,0.2881,0.292,0.2938,0.2954,0.299,0.3025,0.3056,0.3107,0.3134,0.3174,0.314,0.3148,0.3181,0.3206,0.3237,0.319,0.3219,0.3219,0.3145,0.3223,0.3113,0.3146,0.327,0.3272,0.3274,0,0.2843,0.2867,0.2905,0.2947,0.2955,0.2979,0.3018,0.3054,0.3136,0.3164,0.3212,0.3236,0.33,0.3258,0.3324,0.3295,0.33,0.3309,0.331,0.3225,0.3164,0.3105,0.3161,0.3121,0.3291,0.3289,0.3288,0,0.2824,0.2886,0.2911,0.2922,0.2964,0.2988,0.3013,0.307,0.3109,0.3211,0.3245,0.3318,0.3349,0.3386,0.3393,0.3372,0.3461,0.3428,0.3362,0.3356,0.3261,0.3242,0.3282,0.3486,0.3486,0.3486,0.3486,0,0.2845,0.2869,0.2905,0.2914,0.2933,0.2967,0.3006,0.3052,0.3136,0.3173,0.3264,0.3302,0.3385,0.3435,0.3439,0.3433,0.3492,0.3393,0.3377,0.3279,0.3262,0.3218,0.3192,0.3488,0.3488,0.3487,0.3487,0,0.283,0.286,0.2878,0.2916,0.2924,0.2928,0.2988,0.3022,0.3104,0.3163,0.3201,0.3321,0.3378,0.3439,0.3506,0.347,0.3392,0.3467,0.3335,0.3303,0.3176,0.3157,0.3025,0.2919,0.3408,0.3407,0.3406,0,0.2835,0.2839,0.2849,0.2842,0.2864,0.2885,0.2899,0.2988,0.3025,0.3141,0.3165,0.3277,0.332,0.3404,0.3405,0.3423,0.3332,0.3304,0.3242,0.3176,0.3144,0.3005,0.2915,0.3145,0.3142,0.3139,0.3137,0,0.2818,0.2809,0.2808,0.279,0.2797,0.28,0.2837,0.2864,0.295,0.3008,0.3076,0.314,0.3242,0.323,0.327,0.3258,0.3149,0.3247,0.3228,0.299,0.2793,0.268,0.3094,0.3114,0.3116,0.3118,0.3119,0.312,0.2781,0.2756,0.2733,0.2707,0.271,0.2686,0.2664,0.2716,0.274,0.2777,0.291,0.2954,0.3057,0.3109,0.3083,0.3012,0.2971,0.293,0.2927,0.2804,0.265,0.2998,0.2964,0.2965,0.2966,0.2968,0.2968,0,0.2701,0.2668,0.2651,0.2591,0.2554,0.2589,0.2586,0.2546,0.2518,0.2612,0.2653,0.2745,0.2762,0.2839,0.2839,0.2736,0.2593,0.2665,0.2483,0.2421,0.2798,0.2737,0.2591,0.2591,0.2591,0.2591,0.2591,0.2591,0.2648,0.2579,0.2551,0.2429,0.2401,0.2304,0.2276,0.2246,0.2285,0.2281,0.2329,0.2427,0.2633,0.2734,0.2674,0.2587,0.2385,0.2254,0.224,0.2579,0.2604,0.2628,0.2568,0.2389,0.2388,0.1751,0.1747,0.1744]},{"header":{"parameterUnit":"m.s-1","parameterCategory":2,"la1":30.2991,"la2":30.254,"lo1":-89.0895,"lo2":-89.0444,"dy":0.0017,"dx":0.0017,"nx":28,"ny":28,"refTime":"2024-12-13T03:00:00:Z","depth":"0","parameterNumber":3,"parameterNumberName":"V-component_of_CURRENTS"},"data":[0,0,0,0,0,0,0,0,0,0,0,0,0,0,0,0,0,0,0,0,0,0,0,0,0,0,0,0,0,0,0,0,0,0,0,0,0,0,0,0,0,0,0,0,0,0,0,0,0,0,0,0,0,0,0,0,0,0,-0.0,-0.0,0,-0.0046,-0.0046,-0.0047,-0.0079,-0.0079,-0.0079,-0.0079,-0.0139,-0.014,-0.0142,0,0,0,0,0,0,0,0,0,0,0,0,0,0.0025,0.0025,-0.0,-0.0001,-0.0001,-0.0046,-0.0046,-0.0047,-0.0079,-0.0079,-0.0079,-0.0079,-0.0138,-0.014,-0.0142,0,0,0,0,0,0,0,0,0,0,0,0,0,-0.0001,0.0025,-0.0,-0.002,-0.0023,-0.0045,-0.0046,-0.0047,-0.0079,-0.0079,-0.0079,-0.0079,-0.0137,-0.014,-0.0142,-0.0155,0,0,-0.0149,-0.015,0,0,0,0,0,0,0,0,0.0,-0.0002,-0.0017,-0.0019,-0.0021,-0.0055,-0.0059,-0.0083,-0.0079,-0.0059,-0.0079,-0.0079,-0.011,-0.0115,-0.0126,-0.0157,-0.016,-0.0149,-0.0151,-0.0152,-0.0152,0,0,0,0,0,0,0,0.0002,-0.0001,-0.002,-0.0017,-0.002,-0.0039,-0.0043,-0.0064,-0.0086,-0.0061,-0.0063,-0.0065,-0.0112,-0.0124,-0.0128,-0.0161,-0.0149,-0.0151,-0.0153,-0.0154,-0.0206,-0.0206,0,0,0,0,0,0,0.0014,0.0001,-0.0019,-0.0021,-0.0008,-0.0039,-0.0043,-0.0046,-0.0085,-0.0091,-0.0065,-0.0066,-0.012,-0.0125,-0.013,-0.0144,-0.0152,-0.0154,-0.0155,-0.0206,-0.0206,-0.0206,0,0,0,0,0,0,0.0014,0.0012,-0.0017,-0.001,-0.0014,-0.0039,-0.0042,-0.0046,-0.0054,-0.0087,-0.0094,-0.0067,-0.012,-0.0127,-0.0148,-0.0146,-0.0155,-0.0157,-0.0206,-0.0206,-0.0206,-0.0174,0,0,0,0,0,0,0.0015,0.0013,0.0016,-0.0009,-0.0014,-0.0022,-0.0041,-0.0047,-0.0055,-0.0057,-0.0091,-0.0097,-0.0121,-0.0144,-0.015,-0.015,-0.0159,-0.0206,-0.0206,-0.0206,-0.0175,-0.0173,-0.0171,0,0,0,0,0,0.0016,0.0023,0.0016,0.0014,-0.001,-0.0022,-0.0026,-0.0046,-0.0054,-0.0054,-0.0081,-0.0096,-0.0149,-0.0146,-0.0153,-0.0153,-0.0206,-0.0206,-0.0206,-0.0176,-0.0173,-0.0171,0,0,0,0,0,0,0.0033,0.0019,0.0012,0.0013,0.0001,-0.0026,-0.0028,-0.004,-0.0062,-0.0064,-0.0098,-0.0106,-0.0124,-0.0142,-0.0139,-0.0168,-0.0179,-0.018,-0.0153,-0.0151,-0.0149,-0.0122,-0.0161,0,0,0,0,0,0.0039,0.0041,0.0024,0.0025,0.0021,-0.0002,-0.0009,-0.0021,-0.0043,-0.0052,-0.0078,-0.0105,-0.013,-0.0143,-0.0167,-0.0182,-0.0194,-0.0186,-0.0184,-0.0182,-0.0165,-0.0193,-0.0191,-0.0206,-0.0206,-0.0206,0,0,0.0045,0.0039,0.0039,0.0029,0.0016,0.0018,-0.0007,-0.0012,-0.0019,-0.0055,-0.0073,-0.0098,-0.0133,-0.0153,-0.0162,-0.0167,-0.0184,-0.0182,-0.0181,-0.0164,-0.0193,-0.0191,-0.019,-0.0206,-0.0206,-0.0206,0,0,0.0061,0.0054,0.0062,0.0056,0.0046,0.0035,0.0037,0.0015,-0.0004,-0.002,-0.0052,-0.0071,-0.0109,-0.0133,-0.0151,-0.015,-0.0173,-0.0162,-0.0131,-0.0158,-0.0157,-0.0156,-0.0166,-0.0166,-0.0161,-0.0161,-0.0161,0,0.007,0.0076,0.0062,0.0068,0.0073,0.0047,0.006,0.0034,0.0006,-0.0001,-0.0017,-0.0063,-0.0097,-0.0118,-0.0123,-0.0144,-0.0159,-0.0138,-0.0155,-0.0154,-0.0154,-0.0164,-0.0165,-0.016,-0.016,-0.016,-0.016,0,0.0095,0.0096,0.0101,0.0104,0.0109,0.0113,0.0091,0.0084,0.0065,0.0043,0.002,-0.0026,-0.0047,-0.0069,-0.0098,-0.0113,-0.0124,-0.015,-0.0158,-0.015,-0.0162,-0.0163,-0.0157,-0.0158,-0.0159,-0.0159,0,0,0.0125,0.0118,0.0122,0.0133,0.013,0.0141,0.0135,0.0129,0.0138,0.0093,0.0093,0.0039,0.0019,-0.0002,-0.0045,-0.0072,-0.0091,-0.0107,-0.0109,-0.011,-0.0141,-0.0141,-0.0142,-0.0126,-0.0126,-0.0126,-0.0149,0,0.0149,0.0171,0.0164,0.0193,0.0208,0.0196,0.0203,0.0195,0.0176,0.0165,0.0105,0.0091,0.0038,0.0034,-0.0007,-0.0062,-0.0093,-0.0082,-0.0152,-0.0154,-0.0151,-0.0143,-0.0119,-0.0137,-0.015,-0.015,-0.0151,0,0.0174,0.0195,0.023,0.025,0.0258,0.0273,0.0306,0.0307,0.0279,0.0262,0.0231,0.0186,0.0141,0.0088,0.0005,0.0014,-0.0058,-0.0107,-0.011,-0.0118,-0.0156,-0.0148,-0.0139,-0.0264,-0.0153,-0.0153,-0.0152,0,0.0219,0.0234,0.0271,0.0279,0.0307,0.0324,0.0335,0.034,0.0362,0.0324,0.0343,0.0266,0.0251,0.015,0.0048,0.0025,-0.0044,-0.0092,-0.016,-0.016,-0.0154,-0.0154,-0.0265,-0.016,-0.016,-0.016,-0.016,0,0.0252,0.0276,0.0292,0.0322,0.0381,0.0377,0.0437,0.0432,0.0444,0.0487,0.0398,0.0423,0.0266,0.0205,0.0083,-0.0023,-0.0018,-0.0141,-0.0165,-0.0142,-0.0141,-0.0261,-0.0352,-0.0161,-0.0161,-0.016,-0.016,0,0.0293,0.0297,0.0348,0.0389,0.0404,0.0451,0.0507,0.0554,0.0553,0.0604,0.0601,0.055,0.048,0.0327,0.0178,0.005,-0.0151,-0.0119,-0.007,-0.0089,-0.0277,-0.0365,-0.0506,-0.0597,-0.0194,-0.0195,-0.0195,0,0.031,0.0344,0.0412,0.0455,0.0473,0.0534,0.0588,0.0607,0.0658,0.07,0.0732,0.0684,0.0668,0.0459,0.023,0.0025,-0.0139,-0.0109,-0.0159,-0.0272,-0.0389,-0.0461,-0.0534,-0.0138,-0.0138,-0.0138,-0.0137,0,0.0369,0.0395,0.0451,0.0534,0.0595,0.067,0.0729,0.0793,0.0831,0.0887,0.0953,0.095,0.0756,0.0576,0.0281,0.012,-0.0212,-0.011,-0.0246,-0.0364,-0.043,-0.0533,-0.0132,-0.0135,-0.0135,-0.0135,-0.0135,-0.0136,0.0419,0.0467,0.0538,0.0617,0.0691,0.0782,0.0846,0.0931,0.1041,0.1117,0.1115,0.1139,0.0867,0.0487,0.0251,-0.0156,-0.0202,-0.0288,-0.0387,-0.0447,-0.054,-0.0121,-0.0145,-0.0145,-0.0146,-0.0146,-0.0146,0,0.0479,0.0529,0.0607,0.0702,0.0779,0.0807,0.093,0.1001,0.1136,0.1227,0.1283,0.119,0.0856,0.0479,-0.0049,-0.036,-0.0513,-0.0545,-0.0647,-0.0713,-0.0342,-0.0343,-0.0387,-0.0387,-0.0387,-0.0387,-0.0387,-0.0387,0.0516,0.0595,0.063,0.0756,0.0816,0.0914,0.0984,0.1107,0.1199,0.1309,0.1342,0.1343,0.1094,0.019,-0.0451,-0.0624,-0.0895,-0.0937,-0.1093,-0.0835,-0.0819,-0.0803,-0.0824,-0.0968,-0.0969,-0.1414,-0.1418,-0.1421]}],[{"header":{"parameterUnit":"m.s-1","parameterCategory":2,"la1":30.2991,"la2":30.254,"lo1":-89.0895,"lo2":-89.0444,"dy":0.0017,"dx":0.0017,"nx":28,"ny":28,"refTime":"2024-12-13T03:00:00:Z","depth":"2","parameterNumber":2,"parameterNumberName":"U-component_of_CURRENTS"},"data":[0,0,0,0,0,0,0,0,0,0,0,0,0,0,0,0,0,0,0,0,0,0,0,0,0,0,0,0,0,0,0,0,0,0,0,0,0,0,0,0,0,0,0,0,0,0,0,0,0,0,0,0,0,0,0,0,0,0,0.2616,0.2616,0,0.2619,0.2619,0.2619,0.2605,0.2605,0.2605,0.2605,0.2614,0.2614,0.2615,0,0,0,0,0,0,0,0,0,0,0,0,0,0.2613,0.2613,0.2616,0.2616,0.2617,0.2619,0.2619,0.2619,0.2605,0.2605,0.2605,0.2605,0.2614,0.2614,0.2615,0,0,0,0,0,0,0,0,0,0,0,0,0,0.2612,0.2613,0.2616,0.2613,0.2613,0.262,0.2619,0.2619,0.2605,0.2605,0.2605,0.2605,0.2614,0.2614,0.2615,0.2621,0,0,0.2616,0.2617,0,0,0,0,0,0,0,0,0.2612,0.2612,0.2613,0.2613,0.2613,0.2615,0.2622,0.2621,0.2605,0.2605,0.2605,0.2605,0.2617,0.2617,0.2613,0.2621,0.2622,0.2616,0.2617,0.2617,0.2617,0,0,0,0,0,0,0,0.2612,0.2611,0.2614,0.2613,0.2614,0.2617,0.2616,0.2621,0.2609,0.2605,0.2605,0.261,0.2617,0.2613,0.2614,0.2622,0.2616,0.2617,0.2617,0.2617,0.2686,0.2687,0,0,0,0,0,0,0.2618,0.2611,0.2614,0.2614,0.2616,0.2617,0.2616,0.2612,0.2609,0.2609,0.261,0.261,0.2612,0.2613,0.2614,0.2665,0.2617,0.2617,0.2618,0.2684,0.2686,0.2688,0,0,0,0,0,0,0.2617,0.2617,0.2614,0.2616,0.2617,0.2617,0.2613,0.2612,0.2619,0.2614,0.2614,0.262,0.2612,0.2613,0.2623,0.2664,0.2618,0.2618,0.2682,0.2685,0.2687,0.274,0,0,0,0,0,0,0.2617,0.2617,0.262,0.2616,0.2617,0.2631,0.2613,0.2612,0.2624,0.2623,0.2622,0.2622,0.2612,0.2623,0.2624,0.2664,0.2618,0.268,0.2683,0.2686,0.2736,0.2744,0.275,0,0,0,0,0,0.2617,0.262,0.262,0.2621,0.2619,0.2632,0.2633,0.2631,0.2625,0.2635,0.2627,0.2623,0.2643,0.2623,0.2625,0.2666,0.2679,0.2683,0.2686,0.2733,0.2742,0.275,0,0,0,0,0,0,0.2616,0.262,0.2619,0.2622,0.2634,0.2632,0.2641,0.264,0.2641,0.2642,0.2629,0.2629,0.2666,0.2653,0.2632,0.2696,0.2666,0.267,0.2702,0.271,0.2717,0.2737,0.2619,0,0,0,0,0,0.2619,0.2626,0.2631,0.2637,0.2643,0.2645,0.2651,0.2654,0.2654,0.2655,0.2652,0.2657,0.268,0.2681,0.2698,0.2716,0.2719,0.2748,0.2755,0.2761,0.2779,0.2807,0.2818,0.2699,0.2699,0.2699,0,0,0.2621,0.2626,0.2629,0.2639,0.2644,0.2666,0.2648,0.2666,0.2678,0.2657,0.2671,0.2687,0.2693,0.2725,0.274,0.2716,0.2797,0.2765,0.277,0.2785,0.2811,0.2823,0.2833,0.2701,0.2701,0.27,0,0,0.263,0.2633,0.2641,0.2659,0.2679,0.2688,0.2698,0.2706,0.2702,0.2723,0.2721,0.2755,0.2768,0.2784,0.2794,0.2848,0.2843,0.2859,0.2898,0.2924,0.2934,0.2943,0.2961,0.2971,0.285,0.285,0.285,0,0.2634,0.2637,0.2649,0.2669,0.2687,0.2702,0.2723,0.2729,0.2739,0.2744,0.2739,0.2802,0.2804,0.2855,0.2875,0.2867,0.2874,0.2862,0.2933,0.2942,0.295,0.2966,0.2977,0.2853,0.2852,0.2852,0.2852,0,0.2654,0.2659,0.267,0.2701,0.273,0.2749,0.2771,0.2789,0.2798,0.281,0.2864,0.2876,0.2914,0.2929,0.2918,0.2985,0.297,0.2948,0.291,0.2966,0.2979,0.2989,0.2857,0.2856,0.2855,0.2854,0,0,0.265,0.2674,0.2678,0.2691,0.2744,0.2767,0.2804,0.2835,0.2868,0.2894,0.2928,0.2986,0.3006,0.302,0.3023,0.3047,0.3108,0.3023,0.3023,0.3039,0.3166,0.3105,0.3109,0.3094,0.3096,0.3098,0.315,0,0.2656,0.2677,0.2701,0.2742,0.2756,0.2797,0.2838,0.2881,0.2912,0.2951,0.2981,0.3028,0.3034,0.3061,0.3093,0.3116,0.3137,0.3096,0.3113,0.3114,0.3051,0.312,0.2845,0.2865,0.316,0.3161,0.3163,0,0.266,0.2677,0.2704,0.2748,0.2764,0.2802,0.2879,0.2919,0.2984,0.301,0.3073,0.3094,0.316,0.3136,0.3221,0.3195,0.3191,0.3197,0.3198,0.3133,0.3072,0.2859,0.2872,0.3179,0.3177,0.3176,0.3175,0,0.2638,0.2672,0.2689,0.2711,0.2783,0.2805,0.2848,0.2934,0.297,0.3047,0.3094,0.3169,0.3199,0.3243,0.3267,0.3248,0.3335,0.3299,0.3241,0.3236,0.3003,0.2974,0.3342,0.3342,0.3342,0.3341,0.3341,0,0.262,0.2637,0.2675,0.2693,0.274,0.2799,0.2862,0.292,0.2998,0.3046,0.3124,0.3169,0.3226,0.3272,0.3293,0.3314,0.3359,0.3275,0.3256,0.3014,0.2986,0.3254,0.3244,0.3343,0.3343,0.3343,0.3342,0,0.2584,0.261,0.264,0.2703,0.2727,0.2765,0.2847,0.2887,0.299,0.3051,0.3073,0.317,0.3243,0.3299,0.3349,0.3331,0.3361,0.3338,0.3051,0.2999,0.3236,0.3227,0.3299,0.3298,0.3296,0.3295,0.3294,0,0.2559,0.2572,0.2638,0.2649,0.267,0.2727,0.2764,0.2868,0.2894,0.3041,0.3044,0.3145,0.3187,0.3278,0.3249,0.328,0.3335,0.3022,0.294,0.3262,0.3237,0.3231,0.3224,0.2647,0.264,0.2635,0.2631,0,0.2526,0.2555,0.258,0.2593,0.2622,0.2656,0.269,0.2719,0.2833,0.2895,0.2963,0.3022,0.3103,0.2995,0.3027,0.3006,0.3007,0.2922,0.3329,0.271,0.2654,0.2627,0.2641,0.2587,0.2591,0.2595,0.2597,0.2599,0.2499,0.25,0.2517,0.2532,0.2555,0.2545,0.2527,0.2563,0.2607,0.2646,0.2772,0.2772,0.279,0.2713,0.2641,0.2581,0.2799,0.2655,0.2667,0.2685,0.261,0.2556,0.2456,0.2459,0.2462,0.2465,0.2468,0,0.243,0.244,0.244,0.2439,0.2402,0.2447,0.2447,0.2395,0.2383,0.2444,0.2477,0.228,0.2212,0.2251,0.2094,0.211,0.206,0.2016,0.191,0.1957,0.1998,0.1885,0.154,0.1537,0.1534,0.1532,0,0,0.2399,0.2369,0.237,0.2294,0.2275,0.2183,0.2157,0.2107,0.2096,0.2046,0.2005,0.2127,0.2198,0.1835,0.1792,0.1637,0.1783,0.1572,0.232,0.2244,0.2282,0.2377,0.2258,0,0,0,0,0]},{"header":{"parameterUnit":"m.s-1","parameterCategory":2,"la1":30.2991,"la2":30.254,"lo1":-89.0895,"lo2":-89.0444,"dy":0.0017,"dx":0.0017,"nx":28,"ny":28,"refTime":"2024-12-13T03:00:00:Z","depth":"2","parameterNumber":3,"parameterNumberName":"V-component_of_CURRENTS"},"data":[0,0,0,0,0,0,0,0,0,0,0,0,0,0,0,0,0,0,0,0,0,0,0,0,0,0,0,0,0,0,0,0,0,0,0,0,0,0,0,0,0,0,0,0,0,0,0,0,0,0,0,0,0,0,0,0,0,0,0.0107,0.0106,0,0.0065,0.0064,0.0064,0.0037,0.0037,0.0037,0.0036,-0.0035,-0.0037,-0.0038,0,0,0,0,0,0,0,0,0,0,0,0,0,0.0117,0.0117,0.0107,0.0106,0.0106,0.0065,0.0064,0.0064,0.0037,0.0037,0.0036,0.0036,-0.0034,-0.0036,-0.0038,0,0,0,0,0,0,0,0,0,0,0,0,0,0.0097,0.0117,0.0107,0.0088,0.0086,0.0065,0.0064,0.0064,0.0037,0.0037,0.0036,0.0036,-0.0034,-0.0036,-0.0039,-0.0051,0,0,-0.0047,-0.0048,0,0,0,0,0,0,0,0,0.0099,0.0097,0.0091,0.0089,0.0087,0.0056,0.0042,0.0024,0.0037,0.0055,0.0036,0.0036,-0.0007,-0.0012,-0.0019,-0.0054,-0.0057,-0.0047,-0.0049,-0.005,-0.0051,0,0,0,0,0,0,0,0.01,0.0098,0.009,0.0091,0.0088,0.0065,0.0063,0.0038,0.0025,0.0053,0.0051,0.0047,-0.0008,-0.0016,-0.0021,-0.0058,-0.0047,-0.0049,-0.0051,-0.0052,-0.0108,-0.0108,0,0,0,0,0,0,0.0109,0.01,0.0091,0.0089,0.0093,0.0065,0.0062,0.0066,0.0026,0.002,0.0048,0.0046,-0.0012,-0.0018,-0.0024,-0.0027,-0.005,-0.0052,-0.0054,-0.0108,-0.0108,-0.0108,0,0,0,0,0,0,0.0109,0.0109,0.0093,0.0093,0.009,0.0066,0.007,0.0065,0.0058,0.0022,0.0015,0.0045,-0.0012,-0.002,-0.0034,-0.0031,-0.0053,-0.0056,-0.0108,-0.0108,-0.0108,-0.0042,0,0,0,0,0,0,0.011,0.0109,0.0115,0.0094,0.009,0.0088,0.007,0.0065,0.0055,0.0053,0.0017,0.001,-0.0013,-0.003,-0.0037,-0.0035,-0.0058,-0.0109,-0.0108,-0.0108,-0.0045,-0.004,-0.0036,0,0,0,0,0,0.011,0.0122,0.0115,0.0114,0.0099,0.0088,0.0084,0.0065,0.0056,0.0057,0.0037,0.0011,-0.0034,-0.0032,-0.004,-0.0038,-0.0109,-0.0108,-0.0108,-0.0047,-0.0041,-0.0036,0,0,0,0,0,0,0.013,0.012,0.0112,0.012,0.0107,0.0084,0.0082,0.0069,0.0053,0.0051,0.0017,0.001,-0.0008,-0.0031,-0.0027,-0.0055,-0.0078,-0.008,-0.0029,-0.0024,-0.0019,-0.0015,-0.006,0,0,0,0,0,0.0137,0.0142,0.0126,0.0132,0.0128,0.0105,0.0098,0.0086,0.0069,0.0062,0.0037,0.001,-0.0014,-0.0022,-0.0051,-0.0059,-0.0083,-0.0066,-0.0062,-0.0058,-0.0061,-0.0077,-0.0074,-0.0107,-0.0107,-0.0107,0,0,0.0144,0.014,0.0142,0.0136,0.0123,0.0126,0.0101,0.0094,0.0107,0.0056,0.0062,0.002,-0.0015,-0.0026,-0.0036,-0.0042,-0.0061,-0.0058,-0.0054,-0.0059,-0.0076,-0.0073,-0.007,-0.0107,-0.0107,-0.0107,0,0,0.0169,0.016,0.0176,0.0166,0.0154,0.0141,0.0142,0.0122,0.0126,0.0117,0.0086,0.0051,0.0018,-0.0003,-0.0019,-0.0009,-0.0043,-0.0021,0.0013,-0.0002,0.0001,0.0003,-0.002,-0.002,-0.0011,-0.0011,-0.0011,0,0.0179,0.0201,0.0177,0.0187,0.0186,0.0152,0.0169,0.0168,0.0147,0.0149,0.0126,0.0061,0.0028,0.0018,0.0018,0.0001,-0.0014,0.0,0.0005,0.0007,0.0008,-0.0016,-0.0018,-0.0008,-0.0008,-0.0009,-0.0009,0,0.0213,0.0231,0.0237,0.0242,0.0232,0.0241,0.0232,0.0231,0.0216,0.0201,0.0179,0.0128,0.0087,0.007,0.0045,0.0038,0.0021,0.0009,-0.0003,0.0015,-0.0012,-0.0014,-0.0003,-0.0005,-0.0006,-0.0006,0,0,0.0248,0.0263,0.0268,0.0282,0.0267,0.0265,0.0284,0.029,0.0305,0.0262,0.0279,0.0209,0.0162,0.014,0.0102,0.0083,0.0072,0.0054,0.0052,0.004,0.0037,0.0023,0.0019,0.0069,0.0068,0.0068,0.0016,0,0.0291,0.0333,0.0323,0.0356,0.0376,0.0347,0.0367,0.0358,0.0346,0.0353,0.0297,0.0284,0.0202,0.0186,0.0149,0.0094,0.0069,0.0087,0.0012,0.001,0.0003,0.0017,0.0036,-0.0009,0.0014,0.0013,0.0013,0,0.0339,0.036,0.0404,0.0427,0.0431,0.0441,0.0452,0.0464,0.0457,0.0446,0.0403,0.0365,0.0318,0.0262,0.0154,0.0173,0.0105,0.0056,0.0053,0.0014,-0.0009,-0.0026,-0.0015,0.0009,0.0009,0.0009,0.001,0,0.0383,0.0424,0.0464,0.0466,0.0474,0.0493,0.0499,0.0489,0.0518,0.0512,0.0515,0.0445,0.0424,0.0324,0.0196,0.0185,0.0092,0.0067,-0.0013,-0.0015,-0.0029,-0.0032,0.0,0.0,0.0001,0.0001,0.0001,0,0.044,0.0472,0.0493,0.0505,0.0553,0.0537,0.058,0.0578,0.0599,0.0631,0.0563,0.0577,0.044,0.0369,0.0241,0.0102,0.0118,-0.001,-0.0027,-0.0006,-0.0006,-0.0018,-0.0019,-0.0001,-0.0001,-0.0,-0.0,0,0.0485,0.0497,0.0539,0.0562,0.0573,0.0603,0.0645,0.0684,0.0677,0.0725,0.0733,0.069,0.0593,0.0443,0.03,0.0168,0.0039,-0.0012,0.0017,0.0003,-0.0071,-0.0069,-0.0106,-0.0107,-0.0107,-0.0108,-0.0109,0,0.0516,0.0542,0.0575,0.0606,0.0624,0.0667,0.0706,0.0723,0.0775,0.079,0.0835,0.0775,0.0745,0.0515,0.0299,0.0086,0.0049,-0.0049,-0.0076,-0.0068,-0.0081,-0.0077,-0.0074,-0.0071,-0.0071,-0.0071,-0.0071,0,0.0563,0.057,0.0595,0.0661,0.0711,0.0764,0.0831,0.0886,0.091,0.0952,0.1001,0.0987,0.0783,0.059,0.0298,0.0147,-0.0016,-0.0058,-0.0046,-0.0044,-0.0038,-0.005,-0.0047,-0.0072,-0.0072,-0.0072,-0.0072,-0.0072,0.0592,0.0619,0.0652,0.0713,0.0774,0.0853,0.0905,0.0993,0.1072,0.1126,0.112,0.1076,0.0871,0.0501,0.026,-0.0011,-0.0002,-0.0115,-0.0113,-0.0111,-0.0095,-0.009,-0.0132,-0.0132,-0.0132,-0.0133,-0.0133,0,0.0623,0.0648,0.0709,0.0771,0.0841,0.087,0.0977,0.1028,0.1129,0.1179,0.1208,0.0994,0.0791,0.0532,0.0144,-0.0078,-0.0098,-0.0164,-0.0135,-0.0132,-0.013,-0.0114,-0.0157,-0.0157,-0.0158,-0.0159,0,0,0.0635,0.0679,0.07,0.0797,0.0856,0.0939,0.0996,0.1086,0.1139,0.1178,0.1155,0.1127,0.0843,0.0558,0.0271,0.0051,-0.0001,-0.0002,0.0041,0.011,0.0115,-0.0078,-0.0047,0,0,0,0,0]}],[{"header":{"parameterUnit":"m.s-1","parameterCategory":2,"la1":30.2991,"la2":30.254,"lo1":-89.0895,"lo2":-89.0444,"dy":0.0017,"dx":0.0017,"nx":28,"ny":28,"refTime":"2024-12-13T03:00:00:Z","depth":"4","parameterNumber":2,"parameterNumberName":"U-component_of_CURRENTS"},"data":[0,0,0,0,0,0,0,0,0,0,0,0,0,0,0,0,0,0,0,0,0,0,0,0,0,0,0,0,0,0,0,0,0,0,0,0,0,0,0,0,0,0,0,0,0,0,0,0,0,0,0,0,0,0,0,0,0,0,0.1689,0.169,0,0.1725,0.1726,0.1726,0.177,0.1771,0.1772,0.1773,0.1819,0.1819,0.182,0,0,0,0,0,0,0,0,0,0,0,0,0,0.1641,0.1641,0.1689,0.169,0.169,0.1725,0.1726,0.1726,0.177,0.1771,0.1772,0.1773,0.1819,0.1819,0.182,0,0,0,0,0,0,0,0,0,0,0,0,0,0.1666,0.1641,0.1689,0.1717,0.172,0.1725,0.1726,0.1726,0.177,0.1771,0.1772,0.1773,0.1818,0.1819,0.182,0.18,0,0,0.1822,0.1822,0,0,0,0,0,0,0,0,0.1665,0.1668,0.1713,0.1715,0.1719,0.1746,0.1726,0.1752,0.1769,0.175,0.1773,0.1774,0.1795,0.1798,0.18,0.1802,0.1804,0.1822,0.1823,0.1823,0.1823,0,0,0,0,0,0,0,0.1663,0.1667,0.1702,0.1713,0.1717,0.1722,0.1727,0.1731,0.1764,0.1751,0.1755,0.1761,0.1797,0.1799,0.1802,0.1805,0.1822,0.1823,0.1823,0.1823,0.1899,0.1901,0,0,0,0,0,0,0.1661,0.1665,0.1701,0.1703,0.1696,0.1722,0.1728,0.1735,0.1764,0.177,0.176,0.1763,0.1797,0.1801,0.1803,0.1876,0.1823,0.1824,0.1824,0.1898,0.19,0.1901,0,0,0,0,0,0,0.166,0.1664,0.17,0.1686,0.1691,0.1722,0.1729,0.1735,0.1775,0.1771,0.1777,0.1799,0.1798,0.1802,0.184,0.1875,0.1824,0.1825,0.1896,0.1898,0.1901,0.1961,0,0,0,0,0,0,0.1658,0.1663,0.1685,0.1686,0.1692,0.1726,0.1728,0.1735,0.1775,0.178,0.1805,0.1809,0.18,0.184,0.1841,0.1875,0.1825,0.1894,0.1897,0.19,0.1957,0.1965,0.1972,0,0,0,0,0,0.1656,0.167,0.1686,0.1691,0.1715,0.1727,0.1731,0.1755,0.1776,0.1797,0.1819,0.181,0.186,0.1841,0.1843,0.1877,0.1892,0.1896,0.19,0.1953,0.1963,0.1972,0,0,0,0,0,0,0.166,0.1676,0.1693,0.1713,0.1733,0.1736,0.176,0.1777,0.1809,0.1828,0.1826,0.183,0.1878,0.187,0.1849,0.1909,0.1876,0.188,0.1917,0.1926,0.1933,0.1936,0.1826,0,0,0,0,0,0.1671,0.1691,0.1704,0.1727,0.1739,0.1759,0.1776,0.1793,0.1812,0.183,0.1848,0.1869,0.1886,0.1902,0.1913,0.1942,0.1944,0.1967,0.1975,0.1981,0.1986,0.202,0.2031,0.1913,0.1913,0.1913,0,0,0.168,0.1692,0.1706,0.1731,0.175,0.1769,0.1773,0.1807,0.1834,0.1828,0.1884,0.1899,0.1901,0.1937,0.1958,0.1939,0.2018,0.1985,0.1991,0.1992,0.2025,0.2037,0.2047,0.1916,0.1915,0.1915,0,0,0.1691,0.1721,0.1739,0.1759,0.1794,0.1803,0.1822,0.1849,0.1879,0.1921,0.1929,0.1968,0.1994,0.2003,0.2008,0.2064,0.2059,0.2075,0.2114,0.2148,0.2158,0.2166,0.2192,0.2203,0.2077,0.2077,0.2077,0,0.1707,0.1726,0.1747,0.1768,0.1791,0.1822,0.1847,0.1873,0.1915,0.194,0.1952,0.2014,0.2022,0.2059,0.2084,0.2082,0.2099,0.2077,0.2158,0.2166,0.2174,0.2198,0.2209,0.208,0.208,0.2079,0.2079,0,0.172,0.1751,0.1765,0.1803,0.183,0.1859,0.1892,0.1934,0.1976,0.2,0.2066,0.2084,0.2119,0.2133,0.2126,0.2188,0.2182,0.2164,0.2133,0.2189,0.2212,0.2222,0.2085,0.2084,0.2083,0.2082,0,0,0.1708,0.1764,0.1773,0.1798,0.1854,0.1871,0.1927,0.1973,0.2017,0.207,0.2125,0.2168,0.2194,0.2202,0.2209,0.2241,0.2316,0.2235,0.2235,0.2258,0.2397,0.224,0.2235,0.2318,0.232,0.2322,0.2393,0,0.1715,0.1754,0.1786,0.1835,0.1856,0.1908,0.1956,0.201,0.206,0.2122,0.2162,0.2221,0.2215,0.2251,0.2282,0.2311,0.2345,0.2298,0.2341,0.2342,0.2193,0.2242,0.2328,0.24,0.2403,0.2404,0.2405,0,0.1708,0.1738,0.1786,0.1851,0.187,0.1913,0.1995,0.2043,0.2127,0.2176,0.2238,0.2272,0.2341,0.2327,0.2404,0.238,0.2399,0.2413,0.2415,0.2251,0.2202,0.233,0.2423,0.2422,0.2421,0.2419,0.2418,0,0.1666,0.1732,0.1773,0.1797,0.1879,0.1925,0.1979,0.2066,0.2115,0.2222,0.2269,0.2346,0.2401,0.244,0.2473,0.2455,0.2547,0.2518,0.2392,0.2382,0.2476,0.2466,0.2572,0.2572,0.2572,0.2572,0.2572,0,0.1635,0.167,0.1765,0.1785,0.1849,0.1919,0.1996,0.2063,0.2163,0.2218,0.2302,0.2345,0.2436,0.2487,0.2505,0.2476,0.2575,0.2406,0.2389,0.2501,0.2493,0.2484,0.2473,0.2575,0.2574,0.2573,0.2573,0,0.1572,0.1633,0.1688,0.1793,0.1829,0.1881,0.1999,0.2044,0.2156,0.2231,0.2272,0.2378,0.2439,0.2499,0.2572,0.2498,0.25,0.2467,0.2596,0.2586,0.2307,0.2298,0.2325,0.232,0.2315,0.2312,0.2309,0,0.1535,0.156,0.1685,0.1724,0.1778,0.1863,0.1913,0.2034,0.2078,0.2222,0.2241,0.2348,0.2398,0.2366,0.2449,0.2465,0.2436,0.2418,0.2343,0.23,0.2282,0.228,0.2277,0.2302,0.2301,0.23,0.2299,0,0.1474,0.1543,0.1594,0.1672,0.1737,0.1787,0.187,0.1886,0.2014,0.2133,0.215,0.217,0.2229,0.2266,0.2297,0.2304,0.2415,0.2373,0.2381,0.231,0.2273,0.2259,0.2261,0.2284,0.2286,0.2288,0.2289,0,0.1445,0.1469,0.1551,0.1603,0.1677,0.1685,0.1736,0.1774,0.1827,0.1978,0.1985,0.2092,0.2207,0.2184,0.2216,0.2206,0.2166,0.2083,0.2105,0.2122,0.202,0.1941,0.184,0,0,0,0,0,0.1404,0.1417,0.1466,0.1509,0.1574,0.1609,0.1693,0.1744,0.1861,0.1823,0.1894,0.1936,0.1959,0.2021,0.197,0.2137,0.2185,0.2068,0.2104,0.2203,0.222,0.2117,0,0,0,0,0,0,0.1377,0.1427,0.1435,0.1415,0.1423,0.1466,0.1512,0.1589,0.1569,0.17,0.1723,0.1823,0.1881,0.1973,0.1936,0.1956,0.1937,0.2146,0.2141,0.2193,0.2209,0.2222,0.2123,0,0,0,0,0]},{"header":{"parameterUnit":"m.s-1","parameterCategory":2,"la1":30.2991,"la2":30.254,"lo1":-89.0895,"lo2":-89.0444,"dy":0.0017,"dx":0.0017,"nx":28,"ny":28,"refTime":"2024-12-13T03:00:00:Z","depth":"4","parameterNumber":3,"parameterNumberName":"V-component_of_CURRENTS"},"data":[0,0,0,0,0,0,0,0,0,0,0,0,0,0,0,0,0,0,0,0,0,0,0,0,0,0,0,0,0,0,0,0,0,0,0,0,0,0,0,0,0,0,0,0,0,0,0,0,0,0,0,0,0,0,0,0,0,0,0.0165,0.0165,0,0.0144,0.0144,0.0144,0.0131,0.0131,0.0131,0.0131,0.0101,0.0101,0.01,0,0,0,0,0,0,0,0,0,0,0,0,0,0.0166,0.0166,0.0165,0.0165,0.0165,0.0144,0.0144,0.0143,0.0131,0.0131,0.0131,0.0131,0.0102,0.0101,0.01,0,0,0,0,0,0,0,0,0,0,0,0,0,0.0157,0.0166,0.0165,0.0156,0.0155,0.0144,0.0144,0.0143,0.0131,0.0131,0.0131,0.0131,0.0102,0.0101,0.01,0.0094,0,0,0.0096,0.0096,0,0,0,0,0,0,0,0,0.0158,0.0157,0.0158,0.0157,0.0155,0.014,0.0133,0.0127,0.0131,0.014,0.0131,0.0131,0.0114,0.0112,0.0108,0.0093,0.0091,0.0096,0.0096,0.0095,0.0095,0,0,0,0,0,0,0,0.0158,0.0158,0.0157,0.0157,0.0156,0.0143,0.0142,0.0132,0.0127,0.0139,0.0138,0.0136,0.0113,0.0109,0.0107,0.0091,0.0096,0.0095,0.0095,0.0094,0.0083,0.0084,0,0,0,0,0,0,0.0163,0.0158,0.0157,0.0156,0.0157,0.0143,0.0142,0.0145,0.0127,0.0125,0.0136,0.0136,0.0111,0.0108,0.0106,0.0121,0.0095,0.0094,0.0093,0.0083,0.0083,0.0084,0,0,0,0,0,0,0.0163,0.0163,0.0158,0.0156,0.0155,0.0144,0.0147,0.0145,0.0144,0.0125,0.0122,0.0138,0.0111,0.0107,0.0104,0.0119,0.0094,0.0093,0.0082,0.0083,0.0083,0.0137,0,0,0,0,0,0,0.0163,0.0164,0.0169,0.0157,0.0155,0.0159,0.0147,0.0144,0.0142,0.0141,0.0126,0.0123,0.011,0.0106,0.0103,0.0117,0.0092,0.0082,0.0083,0.0083,0.0135,0.014,0.0144,0,0,0,0,0,0.0163,0.0174,0.017,0.017,0.0163,0.016,0.0158,0.0149,0.0143,0.0147,0.0137,0.0123,0.0109,0.0106,0.0102,0.0116,0.0082,0.0082,0.0083,0.0133,0.0139,0.0144,0,0,0,0,0,0,0.0177,0.0174,0.0169,0.0178,0.0172,0.0158,0.0161,0.0152,0.0147,0.0146,0.0128,0.0125,0.0128,0.0112,0.011,0.0114,0.0093,0.0093,0.0132,0.0137,0.0141,0.015,0.0091,0,0,0,0,0,0.0183,0.0191,0.0181,0.0188,0.0187,0.0174,0.0172,0.0165,0.0157,0.0155,0.0143,0.0132,0.0128,0.0125,0.0116,0.0118,0.0092,0.0124,0.0128,0.0132,0.0136,0.0112,0.0114,0.0086,0.0086,0.0086,0,0,0.019,0.0189,0.0193,0.0192,0.0186,0.0194,0.0173,0.0173,0.0184,0.0152,0.0163,0.0146,0.0131,0.0137,0.0136,0.0126,0.0125,0.0133,0.0136,0.0138,0.0113,0.0116,0.0118,0.0087,0.0087,0.0087,0,0,0.0211,0.0207,0.0222,0.022,0.0216,0.0209,0.0211,0.02,0.0202,0.0205,0.0188,0.018,0.0171,0.0165,0.0162,0.0182,0.0148,0.0178,0.0208,0.0185,0.0187,0.0189,0.0154,0.0152,0.0181,0.0181,0.0181,0,0.022,0.0239,0.0225,0.0238,0.0243,0.022,0.0238,0.0236,0.0226,0.0231,0.0217,0.0203,0.0187,0.0198,0.0205,0.0193,0.0168,0.0193,0.0191,0.0192,0.0193,0.0157,0.0154,0.0183,0.0183,0.0183,0.0183,0,0.0251,0.0267,0.0275,0.0287,0.0289,0.0299,0.0294,0.0297,0.029,0.0284,0.0288,0.0262,0.0254,0.0248,0.0234,0.0236,0.0212,0.02,0.018,0.0199,0.016,0.0156,0.0187,0.0186,0.0186,0.0185,0,0,0.0275,0.0295,0.03,0.0317,0.0317,0.0324,0.0342,0.0353,0.0369,0.035,0.0367,0.0351,0.0326,0.0319,0.0295,0.0274,0.0254,0.0243,0.024,0.0212,0.0192,0.0173,0.0166,0.0241,0.0241,0.024,0.016,0,0.0307,0.0345,0.0346,0.0385,0.0403,0.0394,0.0413,0.0417,0.0414,0.0422,0.0394,0.0397,0.0358,0.0354,0.0327,0.0276,0.0247,0.0276,0.0175,0.0171,0.0155,0.0162,0.024,0.0157,0.0156,0.0156,0.0155,0,0.0341,0.0363,0.0405,0.0439,0.0447,0.0466,0.0491,0.0506,0.0507,0.0503,0.049,0.0464,0.0437,0.0399,0.0314,0.0333,0.0268,0.022,0.0216,0.0177,0.0146,0.0134,0.0148,0.0148,0.0149,0.0149,0.015,0,0.0366,0.0409,0.0446,0.0456,0.0484,0.0507,0.0523,0.0531,0.0556,0.0555,0.0559,0.0519,0.0499,0.0419,0.0317,0.0315,0.0214,0.0198,0.0115,0.0112,0.0129,0.0128,0.0134,0.0134,0.0134,0.0134,0.0135,0,0.04,0.0434,0.0464,0.0485,0.0533,0.0541,0.0587,0.0597,0.0618,0.0644,0.0602,0.0602,0.0503,0.0433,0.0334,0.0212,0.0223,0.012,0.0094,0.0152,0.0155,0.0126,0.0126,0.0131,0.0132,0.0133,0.0133,0,0.0421,0.0442,0.0487,0.0528,0.0546,0.058,0.0634,0.0666,0.0675,0.0707,0.0709,0.0666,0.0573,0.046,0.0328,0.0237,0.0122,0.0074,0.014,0.0119,0.0028,0.0032,-0.0025,-0.0026,-0.0027,-0.0028,-0.0029,0,0.0434,0.0458,0.0514,0.0544,0.0568,0.0619,0.0654,0.0691,0.0724,0.074,0.0755,0.0691,0.0639,0.0437,0.0315,0.0124,0.0093,0.0023,0.0029,0.0034,0.0013,0.0019,0.0024,-0.0031,-0.0031,-0.0031,-0.0031,0,0.0451,0.0469,0.0502,0.0563,0.0612,0.0666,0.0722,0.0753,0.0789,0.0803,0.0785,0.0691,0.0586,0.0437,0.0289,0.0152,0.0066,0.0011,0.0012,0.0017,0.0026,0.0008,0.0015,-0.0035,-0.0035,-0.0034,-0.0034,0,0.0455,0.0476,0.0516,0.0569,0.0633,0.069,0.0724,0.076,0.0794,0.0815,0.0807,0.07,0.0649,0.0451,0.0316,0.0181,0.014,0.0082,0.0079,0.0081,0.0136,0.0164,0.0125,0,0,0,0,0,0.0451,0.0471,0.0519,0.0575,0.0642,0.068,0.0755,0.0785,0.0825,0.0815,0.0814,0.0716,0.0527,0.0454,0.0314,0.0284,0.011,0.0112,0.0039,-0.0056,-0.0052,-0.0007,0,0,0,0,0,0,0.0445,0.0485,0.0507,0.0567,0.0608,0.0682,0.0732,0.0766,0.0762,0.0784,0.0692,0.0658,0.0482,0.0602,0.0303,0.0265,0.0193,0.0034,0.003,-0.0058,-0.0054,-0.0051,-0.0004,0,0,0,0,0]}]]